Location: Briis
(48.6240°N, 2.1211°E)
Time: 03:24:49
(UTC+00:00)

BREEZE-M DEB (TANK) - Pass Details

Date: 25 September 2020
Orbit: 306 x 13932 km, 46.1° (Epoch: 22 October)

Event Time Altitude Azimuth Distance (km) Brightness Sun altitude
Exits shadow 03:58:39 23° 229° (SW) 2,333 4.9 -17.7°
Maximum altitude 04:02:22 46° 169° (S) 998 3.5 -17.1°
Drops below altitude 10° 04:05:26 10° 94° (E) 1,618 5.8 -16.7°
Sets 04:06:51 0° 86° (E) 2,255 7.0 -16.4°
